Location: Gad�tanya
(48.0500°N, 20.8500°E)
Time: 18:45:38
(UTC+00:00)

Cosmos 1758 Rocket - Visible Passes

Search period start: 22 October 2020 00:00
Search period end: 01 November 2020 00:00
Orbit: 603 x 635 km, 82.5° (Epoch: 22 October)

Date Brightness Start Highest point End Pass type
(mag) Time Alt. Az. Time Alt. Az. Time Alt. Az.
22 Oct 4.8 17:06:37 10° NNW 17:10:51 45° W 17:15:01 10° SSW visible
23 Oct 7.2 04:07:11 10° E 04:08:18 11° E 04:09:25 10° ENE visible
23 Oct 5.9 17:24:20 10° NNW 17:28:00 26° W 17:31:37 10° SW visible
24 Oct 6.7 04:22:11 10° SE 04:25:19 19° E 04:28:26 10° NE visible
24 Oct 3.6 16:03:20 10° N 16:07:44 60° ENE 16:12:03 10° SSE visible
24 Oct 6.8 17:42:33 10° NW 17:45:04 15° W 17:47:34 10° WSW visible
25 Oct 3.8 16:20:38 10° NNW 16:25:05 77° W 16:29:26 10° S visible
26 Oct 5.0 16:38:09 10° NNW 16:42:19 42° W 16:46:26 10° SSW visible
27 Oct 7.1 03:38:20 10° E 03:39:46 11° E 03:41:13 10° ENE visible
27 Oct 6.1 16:55:55 10° NW 16:59:29 24° W 17:02:59 10° SW visible
28 Oct 6.6 03:53:35 10° SE 03:56:48 20° E 04:00:01 10° NE visible
28 Oct 6.9 17:14:11 10° NW 17:16:32 14° W 17:18:51 10° WSW visible
29 Oct 5.6 04:09:54 10° SSE 04:13:54 33° E 04:17:56 10° NNE visible
29 Oct 3.9 15:52:09 10° NNW 15:56:33 73° W 16:00:53 10° S visible
30 Oct 4.4 04:26:43 10° S 04:31:08 58° E 04:35:32 10° NNE visible
30 Oct 5.1 16:09:41 10° NNW 16:13:48 40° W 16:17:52 10° SSW visible
31 Oct 7.1 03:09:34 10° ESE 03:11:14 12° E 03:12:55 10° ENE visible
31 Oct 3.6 04:43:56 10° SSW 04:48:26 79° W 04:52:56 10° N visible
31 Oct 6.2 16:27:28 10° NW 16:30:56 23° W 16:34:22 10° SW visible
